Tracking 18876 objects as of 15-Dec-2017
HD Live streaming from Space Station
objects crossing your sky now

FALCON 9 R/B

Track FALCON 9 R/B now!
10-day predictions


NORAD ID: 37253
Int'l Code: 2010-066K
Perigee: 300.6 km
Apogee: 10,248.0 km
Inclination: 34.5 °
Period: 208.4 minutes
Semi major axis: 11645 km
RCS: 20.0149 m2 (large)
Launch date: December 8, 2010
Source: United States (US)
Launch site: AIR FORCE EASTERN TEST RANGE (AFETR)

Note: This is a ROCKET BODY
aabbcc
Your satellite tracking list
Your tracking list is empty




NASA's NSSDC Master Catalog

Two Line Element Set (TLE):
1 37253U 10066K   17348.33978179 +.00003644 +00000-0 +35605-3 0  9992
2 37253 034.5372 082.2889 4270983 232.4194 080.6695 06.90837867172919
Source of the keplerian elements: AFSPC